Time,TemperatureF,DewpointF,PressureIn,WindDirection,WindDirectionDegrees,WindSpeedMPH,WindSpeedGustMPH,Humidity,HourlyPrecipIn,Conditions,Clouds,dailyrainin,SoftwareType,DateUTC
2014-09-23 00:03:00,64.0,51.2,29.85,West,270,0.0,0.0,63,0.00,,---,0.00,VWS V13.01,2014-09-23 07:03:00,
2014-09-23 00:08:00,63.9,50.6,29.85,West,270,0.0,0.0,62,0.00,,---,0.00,VWS V13.01,2014-09-23 07:08:00,
2014-09-23 00:13:00,63.7,50.5,29.85,West,270,0.0,0.0,62,0.00,,---,0.00,VWS V13.01,2014-09-23 07:13:00,
2014-09-23 00:18:00,63.5,50.3,29.85,West,270,0.0,0.0,62,0.00,,---,0.00,VWS V13.01,2014-09-23 07:18:00,
2014-09-23 00:23:00,63.2,49.5,29.85,West,270,0.0,0.0,61,0.00,,---,0.00,VWS V13.01,2014-09-23 07:23:00,
2014-09-23 00:28:00,63.1,49.5,29.85,West,270,0.0,0.0,61,0.00,,---,0.00,VWS V13.01,2014-09-23 07:28:00,
2014-09-23 00:33:00,62.9,49.3,29.85,West,270,0.0,0.0,61,0.00,,---,0.00,VWS V13.01,2014-09-23 07:33:00,
2014-09-23 00:38:00,62.9,49.3,29.85,West,270,0.0,0.0,61,0.00,,---,0.00,VWS V13.01,2014-09-23 07:38:00,
2014-09-23 00:43:00,62.6,49.0,29.85,West,270,0.0,0.0,61,0.00,,---,0.00,VWS V13.01,2014-09-23 07:43:00,
2014-09-23 00:48:00,62.4,48.8,29.85,West,270,0.0,0.0,61,0.00,,---,0.00,VWS V13.01,2014-09-23 07:48:00,
2014-09-23 00:53:00,62.3,49.1,29.85,West,270,0.0,0.0,62,0.00,,---,0.00,VWS V13.01,2014-09-23 07:53:00,
2014-09-23 00:58:00,62.1,48.9,29.85,West,270,0.0,0.0,62,0.00,,---,0.00,VWS V13.01,2014-09-23 07:58:00,
2014-09-23 01:03:00,62.0,48.4,29.85,West,270,0.0,0.0,61,0.00,,---,0.00,VWS V13.01,2014-09-23 08:03:00,
2014-09-23 01:08:00,61.8,48.7,29.85,West,270,0.0,0.0,62,0.00,,---,0.00,VWS V13.01,2014-09-23 08:08:00,
2014-09-23 01:13:00,61.8,48.7,29.85,West,270,0.0,0.0,62,0.00,,---,0.00,VWS V13.01,2014-09-23 08:13:00,
2014-09-23 01:18:00,61.6,48.9,29.84,West,270,0.0,0.0,63,0.00,,---,0.00,VWS V13.01,2014-09-23 08:18:00,
2014-09-23 01:23:00,61.5,48.8,29.84,West,270,0.0,0.0,63,0.00,,---,0.00,VWS V13.01,2014-09-23 08:23:00,
2014-09-23 01:28:00,61.5,48.8,29.84,West,270,0.0,0.0,63,0.00,,---,0.00,VWS V13.01,2014-09-23 08:28:00,
2014-09-23 01:33:00,61.3,49.0,29.85,West,270,0.0,0.0,64,0.00,,---,0.00,VWS V13.01,2014-09-23 08:33:00,
2014-09-23 01:38:00,61.2,49.3,29.85,West,270,0.0,0.0,65,0.00,,---,0.00,VWS V13.01,2014-09-23 08:38:00,
2014-09-23 01:43:00,61.0,49.6,29.85,West,270,0.0,0.0,66,0.00,,---,0.00,VWS V13.01,2014-09-23 08:43:00,
2014-09-23 01:48:00,60.9,49.9,29.85,West,270,0.0,0.0,67,0.00,,---,0.00,VWS V13.01,2014-09-23 08:48:00,
2014-09-23 01:53:00,60.7,49.7,29.85,West,270,0.0,0.0,67,0.00,,---,0.00,VWS V13.01,2014-09-23 08:53:00,
2014-09-23 01:58:00,60.7,49.7,29.85,West,270,0.0,0.0,67,0.00,,---,0.00,VWS V13.01,2014-09-23 08:58:00,
2014-09-23 02:03:00,60.5,49.5,29.85,West,270,0.0,0.0,67,0.00,,---,0.00,VWS V13.01,2014-09-23 09:03:00,
2014-09-23 02:07:00,60.4,49.4,29.85,West,270,0.0,0.0,67,0.00,,---,0.00,VWS V13.01,2014-09-23 09:07:00,
2014-09-23 02:12:00,60.2,49.2,29.85,West,270,0.0,0.0,67,0.00,,---,0.00,VWS V13.01,2014-09-23 09:12:00,
2014-09-23 02:17:00,60.1,49.5,29.85,West,270,0.0,0.0,68,0.00,,---,0.00,VWS V13.01,2014-09-23 09:17:00,
2014-09-23 02:20:00,60.1,49.5,29.85,West,270,0.0,0.0,68,0.00,,---,0.00,VWS V13.01,2014-09-23 09:20:00,
2014-09-23 02:25:00,59.9,49.3,29.85,West,270,0.0,0.0,68,0.00,,---,0.00,VWS V13.01,2014-09-23 09:25:00,
2014-09-23 02:30:00,59.9,49.3,29.85,West,270,0.0,0.0,68,0.00,,---,0.00,VWS V13.01,2014-09-23 09:30:00,
2014-09-23 02:35:00,59.9,49.7,29.85,West,270,0.0,0.0,69,0.00,,---,0.00,VWS V13.01,2014-09-23 09:35:00,
2014-09-23 02:40:00,59.8,49.6,29.85,West,270,0.0,0.0,69,0.00,,---,0.00,VWS V13.01,2014-09-23 09:40:00,
2014-09-23 02:45:00,59.6,49.4,29.85,West,270,0.0,0.0,69,0.00,,---,0.00,VWS V13.01,2014-09-23 09:45:00,
2014-09-23 02:50:00,59.6,49.8,29.84,West,270,0.0,0.0,70,0.00,,---,0.00,VWS V13.01,2014-09-23 09:50:00,
2014-09-23 02:55:00,59.6,49.8,29.84,West,270,0.0,0.0,70,0.00,,---,0.00,VWS V13.01,2014-09-23 09:55:00,
2014-09-23 03:00:00,59.5,50.1,29.84,West,270,0.0,0.0,71,0.00,,---,0.00,VWS V13.01,2014-09-23 10:00:00,
2014-09-23 03:05:00,59.5,50.5,29.84,West,270,0.0,0.0,72,0.00,,---,0.00,VWS V13.01,2014-09-23 10:05:00,
2014-09-23 03:10:00,59.5,50.5,29.84,West,270,0.0,0.0,72,0.00,,---,0.00,VWS V13.01,2014-09-23 10:10:00,
2014-09-23 03:15:00,59.3,50.7,29.84,West,270,0.0,0.0,73,0.00,,---,0.00,VWS V13.01,2014-09-23 10:15:00,
2014-09-23 03:20:00,59.3,50.7,29.84,West,270,0.0,0.0,73,0.00,,---,0.00,VWS V13.01,2014-09-23 10:20:00,
2014-09-23 03:25:00,59.2,50.6,29.84,West,270,0.0,0.0,73,0.00,,---,0.00,VWS V13.01,2014-09-23 10:25:00,
2014-09-23 03:30:00,59.0,50.7,29.84,West,270,0.0,0.0,74,0.00,,---,0.00,VWS V13.01,2014-09-23 10:30:00,
2014-09-23 03:35:00,58.7,50.5,29.84,West,270,0.0,0.0,74,0.00,,---,0.00,VWS V13.01,2014-09-23 10:35:00,
2014-09-23 03:40:00,58.7,50.5,29.84,West,270,0.0,0.0,74,0.00,,---,0.00,VWS V13.01,2014-09-23 10:40:00,
2014-09-23 03:45:00,58.6,50.7,29.84,West,270,0.0,0.0,75,0.00,,---,0.00,VWS V13.01,2014-09-23 10:45:00,
2014-09-23 03:50:00,58.4,50.5,29.84,West,270,0.0,0.0,75,0.00,,---,0.00,VWS V13.01,2014-09-23 10:50:00,
2014-09-23 03:55:00,58.4,50.5,29.84,West,270,0.0,0.0,75,0.00,,---,0.00,VWS V13.01,2014-09-23 10:55:00,
2014-09-23 04:00:00,58.3,50.4,29.84,West,270,0.0,0.0,75,0.00,,---,0.00,VWS V13.01,2014-09-23 11:00:00,
2014-09-23 04:05:00,58.3,50.4,29.84,West,270,0.0,0.0,75,0.00,,---,0.00,VWS V13.01,2014-09-23 11:05:00,
2014-09-23 04:10:00,58.3,50.8,29.84,West,270,0.0,0.0,76,0.00,,---,0.00,VWS V13.01,2014-09-23 11:10:00,
2014-09-23 04:15:00,58.3,51.1,29.84,West,270,0.0,0.0,77,0.00,,---,0.00,VWS V13.01,2014-09-23 11:15:00,
2014-09-23 04:20:00,58.1,50.9,29.84,West,270,0.0,0.0,77,0.00,,---,0.00,VWS V13.01,2014-09-23 11:20:00,
2014-09-23 04:25:00,58.1,50.9,29.84,West,270,0.0,0.0,77,0.00,,---,0.00,VWS V13.01,2014-09-23 11:25:00,
2014-09-23 04:30:00,58.1,50.9,29.84,West,270,0.0,0.0,77,0.00,,---,0.00,VWS V13.01,2014-09-23 11:30:00,
2014-09-23 04:35:00,58.0,51.2,29.84,West,270,0.0,0.0,78,0.00,,---,0.00,VWS V13.01,2014-09-23 11:35:00,
2014-09-23 04:40:00,57.8,51.0,29.84,West,270,0.0,0.0,78,0.00,,---,0.00,VWS V13.01,2014-09-23 11:40:00,
2014-09-23 04:45:00,57.8,51.3,29.84,West,270,0.0,0.0,79,0.00,,---,0.00,VWS V13.01,2014-09-23 11:45:00,
2014-09-23 04:50:00,57.6,51.1,29.85,West,270,0.0,0.0,79,0.00,,---,0.00,VWS V13.01,2014-09-23 11:50:00,
2014-09-23 04:55:00,57.6,51.1,29.85,West,270,0.0,0.0,79,0.00,,---,0.00,VWS V13.01,2014-09-23 11:55:00,
2014-09-23 05:00:00,57.6,51.5,29.85,West,270,0.0,0.0,80,0.00,,---,0.00,VWS V13.01,2014-09-23 12:00:00,
2014-09-23 05:05:00,57.6,51.5,29.85,West,270,0.0,0.0,80,0.00,,---,0.00,VWS V13.01,2014-09-23 12:05:00,
2014-09-23 05:10:00,57.6,51.5,29.85,West,270,0.0,0.0,80,0.00,,---,0.00,VWS V13.01,2014-09-23 12:10:00,
2014-09-23 05:13:00,57.6,51.5,29.85,West,270,0.0,0.0,80,0.00,,---,0.00,VWS V13.01,2014-09-23 12:13:00,
2014-09-23 05:18:00,57.5,51.4,29.85,West,270,0.0,0.0,80,0.00,,---,0.00,VWS V13.01,2014-09-23 12:18:00,
2014-09-23 05:23:00,57.5,51.4,29.85,West,270,0.0,0.0,80,0.00,,---,0.00,VWS V13.01,2014-09-23 12:23:00,
2014-09-23 05:28:00,57.6,51.8,29.85,West,270,0.0,0.0,81,0.00,,---,0.00,VWS V13.01,2014-09-23 12:28:00,
2014-09-23 05:33:00,57.6,51.8,29.85,West,270,0.0,0.0,81,0.00,,---,0.00,VWS V13.01,2014-09-23 12:33:00,
2014-09-23 05:38:00,57.6,51.8,29.85,West,270,0.0,0.0,81,0.00,,---,0.00,VWS V13.01,2014-09-23 12:38:00,
2014-09-23 05:43:00,57.6,51.8,29.85,West,270,0.0,0.0,81,0.00,,---,0.00,VWS V13.01,2014-09-23 12:43:00,
2014-09-23 05:48:00,57.6,51.8,29.85,West,270,0.0,0.0,81,0.00,,---,0.00,VWS V13.01,2014-09-23 12:48:00,
2014-09-23 05:53:00,57.5,51.7,29.85,West,270,0.0,0.0,81,0.00,,---,0.00,VWS V13.01,2014-09-23 12:53:00,
2014-09-23 05:58:00,57.5,52.1,29.85,West,270,0.0,0.0,82,0.00,,---,0.00,VWS V13.01,2014-09-23 12:58:00,
2014-09-23 06:03:00,57.5,52.1,29.85,West,270,0.0,0.0,82,0.00,,---,0.00,VWS V13.01,2014-09-23 13:03:00,
2014-09-23 06:08:00,57.3,51.9,29.85,West,270,0.0,0.0,82,0.00,,---,0.00,VWS V13.01,2014-09-23 13:08:00,
2014-09-23 06:13:00,57.3,51.9,29.85,West,270,0.0,0.0,82,0.00,,---,0.00,VWS V13.01,2014-09-23 13:13:00,
2014-09-23 06:18:00,57.5,52.1,29.86,West,270,0.0,0.0,82,0.00,,---,0.00,VWS V13.01,2014-09-23 13:18:00,
2014-09-23 06:23:00,57.3,52.2,29.86,West,270,0.0,0.0,83,0.00,,---,0.00,VWS V13.01,2014-09-23 13:23:00,
2014-09-23 06:28:00,57.2,52.1,29.86,West,270,0.0,0.0,83,0.00,,---,0.00,VWS V13.01,2014-09-23 13:28:00,
2014-09-23 06:33:00,57.3,52.2,29.87,West,270,0.0,0.0,83,0.00,,---,0.00,VWS V13.01,2014-09-23 13:33:00,
2014-09-23 06:38:00,57.3,52.2,29.87,West,270,0.0,0.0,83,0.00,,---,0.00,VWS V13.01,2014-09-23 13:38:00,
2014-09-23 06:43:00,57.2,52.1,29.87,West,270,0.0,0.0,83,0.00,,---,0.00,VWS V13.01,2014-09-23 13:43:00,
2014-09-23 06:48:00,57.2,52.1,29.87,West,270,0.0,0.0,83,0.00,,---,0.00,VWS V13.01,2014-09-23 13:48:00,
2014-09-23 06:53:00,57.2,52.4,29.87,West,270,0.0,0.0,84,0.00,,---,0.00,VWS V13.01,2014-09-23 13:53:00,
2014-09-23 06:58:00,57.2,52.4,29.87,West,270,0.0,0.0,84,0.00,,---,0.00,VWS V13.01,2014-09-23 13:58:00,
2014-09-23 07:03:00,57.2,52.4,29.88,West,270,0.0,0.0,84,0.00,,---,0.00,VWS V13.01,2014-09-23 14:03:00,
2014-09-23 07:08:00,57.2,52.4,29.88,West,270,0.0,0.0,84,0.00,,---,0.00,VWS V13.01,2014-09-23 14:08:00,
2014-09-23 07:13:00,57.2,52.4,29.88,West,270,0.0,0.0,84,0.00,,---,0.00,VWS V13.01,2014-09-23 14:13:00,
2014-09-23 07:18:00,57.3,52.5,29.89,West,270,0.0,0.0,84,0.00,,---,0.00,VWS V13.01,2014-09-23 14:18:00,
2014-09-23 07:23:00,57.5,52.7,29.89,West,270,0.0,0.0,84,0.00,,---,0.00,VWS V13.01,2014-09-23 14:23:00,
2014-09-23 07:28:00,58.0,53.5,29.89,West,270,0.0,0.0,85,0.00,,---,0.00,VWS V13.01,2014-09-23 14:28:00,
2014-09-23 07:31:00,58.1,53.3,29.89,West,270,0.0,0.0,84,0.00,,---,0.00,VWS V13.01,2014-09-23 14:31:00,
2014-09-23 07:36:00,58.4,53.6,29.89,West,270,0.0,0.0,84,0.00,,---,0.00,VWS V13.01,2014-09-23 14:36:00,
2014-09-23 07:41:00,58.7,53.9,29.89,West,270,0.0,0.0,84,0.00,,---,0.00,VWS V13.01,2014-09-23 14:41:00,
2014-09-23 07:46:00,59.0,54.2,29.89,West,270,0.0,0.0,84,0.00,,---,0.00,VWS V13.01,2014-09-23 14:46:00,
2014-09-23 07:51:00,59.5,54.7,29.89,West,270,0.0,0.0,84,0.00,,---,0.00,VWS V13.01,2014-09-23 14:51:00,
2014-09-23 07:56:00,60.1,55.3,29.89,West,270,0.0,0.0,84,0.00,,---,0.00,VWS V13.01,2014-09-23 14:56:00,
2014-09-23 08:01:00,60.9,55.7,29.89,West,270,0.0,0.0,83,0.00,,---,0.00,VWS V13.01,2014-09-23 15:01:00,
2014-09-23 08:06:00,61.6,56.1,29.89,West,270,0.0,0.0,82,0.00,,---,0.00,VWS V13.01,2014-09-23 15:06:00,
2014-09-23 08:11:00,62.6,56.7,29.89,West,270,0.0,0.0,81,0.00,,---,0.00,VWS V13.01,2014-09-23 15:11:00,
2014-09-23 08:16:00,63.4,56.8,29.89,West,270,0.0,0.0,79,0.00,,---,0.00,VWS V13.01,2014-09-23 15:16:00,
2014-09-23 08:21:00,64.3,57.0,29.89,West,270,0.0,0.0,77,0.00,,---,0.00,VWS V13.01,2014-09-23 15:21:00,
2014-09-23 08:26:00,65.3,57.2,29.89,West,268,0.0,0.0,75,0.00,,---,0.00,VWS V13.01,2014-09-23 15:26:00,
2014-09-23 08:31:00,66.1,57.2,29.89,West,270,0.0,0.0,73,0.00,,---,0.00,VWS V13.01,2014-09-23 15:31:00,
2014-09-23 08:36:00,66.8,57.5,29.89,West,268,0.0,0.0,72,0.00,,---,0.00,VWS V13.01,2014-09-23 15:36:00,
2014-09-23 08:41:00,67.6,57.9,29.89,West,268,0.0,0.0,71,0.00,,---,0.00,VWS V13.01,2014-09-23 15:41:00,
2014-09-23 08:46:00,68.3,58.2,29.89,West,270,0.0,0.0,70,0.00,,---,0.00,VWS V13.01,2014-09-23 15:46:00,
2014-09-23 08:51:00,69.1,57.7,29.89,West,268,0.0,0.0,67,0.00,,---,0.00,VWS V13.01,2014-09-23 15:51:00,
2014-09-23 08:56:00,69.6,57.8,29.89,West,270,0.0,0.0,66,0.00,,---,0.00,VWS V13.01,2014-09-23 15:56:00,
2014-09-23 09:01:00,70.1,57.8,29.89,West,270,0.0,0.0,65,0.00,,---,0.00,VWS V13.01,2014-09-23 16:01:00,
2014-09-23 09:06:00,71.8,58.5,29.89,West,270,0.0,0.0,63,0.00,,---,0.00,VWS V13.01,2014-09-23 16:06:00,
2014-09-23 09:11:00,72.7,58.9,29.89,West,270,0.0,0.0,62,0.00,,---,0.00,VWS V13.01,2014-09-23 16:11:00,
2014-09-23 09:16:00,73.3,58.6,29.89,West,270,0.0,0.0,60,0.00,,---,0.00,VWS V13.01,2014-09-23 16:16:00,
2014-09-23 09:21:00,74.6,58.4,29.89,West,268,0.0,1.0,57,0.00,,---,0.00,VWS V13.01,2014-09-23 16:21:00,
2014-09-23 09:26:00,75.4,58.1,29.89,West,268,0.0,1.0,55,0.00,,---,0.00,VWS V13.01,2014-09-23 16:26:00,
2014-09-23 09:31:00,76.1,58.3,29.89,West,268,0.0,1.0,54,0.00,,---,0.00,VWS V13.01,2014-09-23 16:31:00,
2014-09-23 09:36:00,76.3,57.4,29.88,West,268,0.0,0.0,52,0.00,,---,0.00,VWS V13.01,2014-09-23 16:36:00,
2014-09-23 09:41:00,76.8,57.9,29.88,West,270,0.0,0.0,52,0.00,,---,0.00,VWS V13.01,2014-09-23 16:41:00,
2014-09-23 09:46:00,77.7,57.0,29.88,West,268,0.0,0.0,49,0.00,,---,0.00,VWS V13.01,2014-09-23 16:46:00,
2014-09-23 09:51:00,78.1,56.8,29.88,West,270,0.0,0.0,48,0.00,,---,0.00,VWS V13.01,2014-09-23 16:51:00,
2014-09-23 09:56:00,78.6,56.7,29.88,West,270,0.0,0.0,47,0.00,,---,0.00,VWS V13.01,2014-09-23 16:56:00,
2014-09-23 10:01:00,79.0,57.1,29.88,West,270,0.0,0.0,47,0.00,,---,0.00,VWS V13.01,2014-09-23 17:01:00,
2014-09-23 10:06:00,79.2,54.8,29.88,West,270,0.0,0.0,43,0.00,,---,0.00,VWS V13.01,2014-09-23 17:06:00,
2014-09-23 10:11:00,79.4,55.6,29.88,West,270,0.0,0.0,44,0.00,,---,0.00,VWS V13.01,2014-09-23 17:11:00,
2014-09-23 10:16:00,79.6,54.5,29.88,WNW,288,0.0,2.0,42,0.00,,---,0.00,VWS V13.01,2014-09-23 17:16:00,
2014-09-23 10:21:00,79.8,55.3,29.88,WNW,289,0.0,2.0,43,0.00,,---,0.00,VWS V13.01,2014-09-23 17:21:00,
2014-09-23 10:26:00,80.1,54.3,29.88,WNW,291,0.0,2.0,41,0.00,,---,0.00,VWS V13.01,2014-09-23 17:26:00,
2014-09-23 10:31:00,80.3,52.4,29.88,WNW,291,0.0,2.0,38,0.00,,---,0.00,VWS V13.01,2014-09-23 17:31:00,
2014-09-23 10:36:00,80.5,52.6,29.88,East,86,2.0,3.0,38,0.00,,---,0.00,VWS V13.01,2014-09-23 17:36:00,
2014-09-23 10:41:00,81.2,51.7,29.88,East,99,0.0,5.0,36,0.00,,---,0.00,VWS V13.01,2014-09-23 17:41:00,
2014-09-23 10:46:00,81.6,51.3,29.88,NNW,340,0.0,5.0,35,0.00,,---,0.00,VWS V13.01,2014-09-23 17:46:00,
2014-09-23 10:51:00,81.6,51.3,29.88,North,349,0.0,5.0,35,0.00,,---,0.00,VWS V13.01,2014-09-23 17:51:00,
2014-09-23 10:56:00,81.8,51.5,29.88,ENE,68,2.0,5.0,35,0.00,,---,0.00,VWS V13.01,2014-09-23 17:56:00,
2014-09-23 11:01:00,82.0,52.4,29.88,ENE,69,0.0,5.0,36,0.00,,---,0.00,VWS V13.01,2014-09-23 18:01:00,
2014-09-23 11:06:00,82.2,51.1,29.88,ENE,66,0.0,0.0,34,0.00,,---,0.00,VWS V13.01,2014-09-23 18:06:00,
2014-09-23 11:11:00,82.4,52.0,29.88,ENE,64,0.0,1.0,35,0.00,,---,0.00,VWS V13.01,2014-09-23 18:11:00,
2014-09-23 11:16:00,82.6,52.2,29.88,NNE,14,0.0,1.0,35,0.00,,---,0.00,VWS V13.01,2014-09-23 18:16:00,
2014-09-23 11:21:00,82.6,51.4,29.88,NE,42,0.0,3.0,34,0.00,,---,0.00,VWS V13.01,2014-09-23 18:21:00,
2014-09-23 11:26:00,82.8,51.6,29.88,NE,48,0.0,3.0,34,0.00,,---,0.00,VWS V13.01,2014-09-23 18:26:00,
2014-09-23 11:31:00,83.0,52.6,29.88,NE,48,0.0,3.0,35,0.00,,---,0.00,VWS V13.01,2014-09-23 18:31:00,
2014-09-23 11:36:00,83.2,51.9,29.86,NE,49,0.0,1.0,34,0.00,,---,0.00,VWS V13.01,2014-09-23 18:36:00,
2014-09-23 11:41:00,83.4,52.1,29.86,ENE,73,0.0,5.0,34,0.00,,---,0.00,VWS V13.01,2014-09-23 18:41:00,
2014-09-23 11:46:00,83.6,53.1,29.86,ENE,73,0.0,5.0,35,0.00,,---,0.00,VWS V13.01,2014-09-23 18:46:00,
2014-09-23 11:51:00,83.8,52.5,29.86,East,90,0.0,5.0,34,0.00,,---,0.00,VWS V13.01,2014-09-23 18:51:00,
2014-09-23 11:56:00,84.1,52.7,29.86,North,7,0.0,5.0,34,0.00,,---,0.00,VWS V13.01,2014-09-23 18:56:00,
2014-09-23 12:01:00,84.3,52.9,29.86,NNE,27,0.0,5.0,34,0.00,,---,0.00,VWS V13.01,2014-09-23 19:01:00,
2014-09-23 12:06:00,84.5,52.3,29.85,NNE,24,0.0,1.0,33,0.00,,---,0.00,VWS V13.01,2014-09-23 19:06:00,
2014-09-23 12:11:00,84.7,52.4,29.85,NNE,24,0.0,1.0,33,0.00,,---,0.00,VWS V13.01,2014-09-23 19:11:00,
2014-09-23 12:16:00,85.1,53.6,29.85,ENE,75,2.0,5.0,34,0.00,,---,0.00,VWS V13.01,2014-09-23 19:16:00,
2014-09-23 12:21:00,85.3,51.3,29.85,ENE,75,0.0,5.0,31,0.00,,---,0.00,VWS V13.01,2014-09-23 19:21:00,
2014-09-23 12:26:00,85.7,53.3,29.85,ENE,76,0.0,5.0,33,0.00,,---,0.00,VWS V13.01,2014-09-23 19:26:00,
2014-09-23 12:31:00,86.1,52.0,29.85,North,0,0.0,5.0,31,0.00,,---,0.00,VWS V13.01,2014-09-23 19:31:00,
2014-09-23 12:36:00,86.5,54.0,29.85,North,357,0.0,0.0,33,0.00,,---,0.00,VWS V13.01,2014-09-23 19:36:00,
2014-09-23 12:41:00,87.2,52.0,29.85,West,280,0.0,4.0,30,0.00,,---,0.00,VWS V13.01,2014-09-23 19:41:00,
2014-09-23 12:46:00,87.6,52.4,29.85,West,267,0.0,6.0,30,0.00,,---,0.00,VWS V13.01,2014-09-23 19:46:00,
2014-09-23 12:51:00,87.8,50.7,29.84,WSW,258,0.0,6.0,28,0.00,,---,0.00,VWS V13.01,2014-09-23 19:51:00,